Regional Weather Roundup
Issued by NWS Newport/Morehead, NC

Current Version | Previous Version | Graphics & Text | Print | Product List | Glossary Off
Versions: 1 2 3 4 5 6 7 8 9 10 11 12 13 14 15 16 17 18 19 20 21 22 23 24 25 26 27 28 29 30 31 32 33 34 35 36 37 38 39 40 41 42 43 44 45 46 47 48 49 50

000
ASUS42 KMHX 061124
RWRMHX
WEATHER ROUNDUP FOR EASTERN NORTH CAROLINA
NATIONAL WEATHER SERVICE NEWPORT/MOREHEAD CITY NC
600 AM EST FRI MAR 06 2015

NOTE: "FAIR" INDICATES FEW OR NO CLOUDS BELOW 12,000 FEET
WITH NO SIGNIFICANT WEATHER AND/OR OBSTRUCTIONS TO VISIBILITY

NCZ015>017-031-032-045>047-102-103-061200-
NORTH COAST

CITY           SKY/WX    TMP DP  RH WIND       PRES   REMARKS
EDENTON        CLOUDY    27  20  76 N14G22    30.46R WCI  15
ELIZABETH CITY CLOUDY    26  17  68 N22       30.45R WCI  12
KITTY HAWK     CLOUDY    28  20  71 N18G28    30.40S WCI  15
MANTEO         CLOUDY    28  19  70 NE24G35   30.42R WCI  13

$$

NCZ045>047-081-094-103-104-061200-
CENTRAL COAST

CITY           SKY/WX    TMP DP  RH WIND       PRES   REMARKS
FRISCO         CLOUDY    31  24  75 N17G36    30.36R WCI  19
SWANQUARTER      N/A     28 N/A N/A N15G23    30.39R WCI  17

$$

NCZ095-097-098-100-101-061200-
SOUTHERN COAST

CITY           SKY/WX    TMP DP  RH WIND       PRES   REMARKS
BEAUFORT       CLOUDY    31  25  78 MISG      30.38R
CEDAR ISLAND     N/A    N/A N/A N/A N20G35    30.44R
JACKSONVILLE   CLOUDY    32  23  69 N17G26    30.40R
PINEY ISLAND     N/A    N/A N/A N/A MISG      30.39R
WILMINGTON     CLOUDY    32  22  66 N18G28    30.39R


$$

NCZ011>013-027>030-043-044-078>080-089-090>093-098-061200-
COASTAL PLAIN

CITY           SKY/WX    TMP DP  RH WIND       PRES   REMARKS
AHOSKIE        CLEAR     22  11  63 N15       30.50R WCI   9
CLINTON        CLOUDY    32  21  65 N16G25    30.43R
ELIZABETHTOWN  CLOUDY    33  23  69 N8        30.41R
GOLDSBORO      CLOUDY    29  19  66 N15       30.43R WCI  17
GREENVILLE     CLOUDY    28  16  59 N13G24    30.46R WCI  18
HAVELOCK       CLOUDY    32  25  75 N23G30    30.40R WCI  19
KENANSVILLE    CLOUDY    30  19  64 NE9       30.44R
KINSTON        NOT AVBL
NEW BERN       CLOUDY    30  22  72 N14G22    30.42R WCI  19
RICHLANDS      CLOUDY    28  16  59 N12G18    30.42R WCI  18
ROCKY MOUNT    CLEAR     24  12  60 N16       30.47R WCI  11
WASHINGTON     CLOUDY    28  19  71 N13G20    30.45R WCI  17
WHITEVILLE     CLOUDY    34  24  66 NE9       30.39R

$$

AMZ130-135-150-152-154-156-158-170-250-252-270-ANZ085-086-088-633-658-670-061200-
MARINE OBSERVATIONS

STATION/POSITION TIME  TEMP    WIND        PRES    WAVE   SWELL
                       AIR SEA DIR/SP/G            HT/PER HT/PER
                 (UTC) (F)     (DEG/KT/KT) (MB)    (FT/S) (FT/S)
CHESAPEAKE LIGHT 1100   24      10/ 25/ 27 1031.9
64 E VA BEACH    1050   34 52   10/ 27/ 33 1028.1   11/ 8
DUCK             1100   28 35   10/ 24/ 30 1029.0
2 E DUCK         1011      35                N/A     9/ 8   2/11
10 NE DUCK       1022      38                N/A    11/ 8   2/11
OREGON INLET     1100   29 39  350/ 19/ 29 1029.6
HATTERAS CG      1100      46   10/ 30/ 36 1028.5
CAPE LOOKOUT     1100           20/ 21/ 26 1028.2
BEAUFORT LAB     1100   32 48   20/ 18/ 22 1027.6
27 SE WRIGHTSVLE NOT AVBL
5 SE WRIGHTSVLE  NOT AVBL
225 S CAPE HAT   1050   67 72   10/ 19/ 23 1019.6    6/ 7   3/ 7
41 SE CHARLESTON 1050   47 68   20/ 25/ 31 1024.3   10/ 8

$$


USA.gov is the U.S. government's official web portal to all federal, state and local government web resources and services.